TimeEDT,TemperatureF,Dew PointF,Humidity,Sea Level PressureIn,VisibilityMPH,Wind Direction,Wind SpeedMPH,Gust SpeedMPH,PrecipitationIn,Events,Conditions,WindDirDegrees,DateUTC
12:15 AM,32.9,26.6,78,29.97,10.0,NNW,5.8,-,N/A,,Overcast,330,2013-03-26 04:15:00
12:55 AM,32.9,25.7,75,29.97,10.0,NNW,6.9,-,N/A,,Overcast,340,2013-03-26 04:55:00
1:15 AM,33.1,25.5,74,29.97,10.0,NNW,6.9,-,N/A,,Overcast,340,2013-03-26 05:15:00
1:35 AM,32.9,26.1,76,29.97,10.0,NNW,5.8,-,N/A,,Overcast,330,2013-03-26 05:35:00
1:55 AM,32.4,26.4,79,29.98,10.0,NNW,5.8,-,N/A,,Overcast,330,2013-03-26 05:55:00
2:16 AM,32.5,26.4,78,29.98,10.0,NNW,5.8,-,N/A,,Overcast,340,2013-03-26 06:16:00
2:35 AM,32.9,26.1,76,29.98,10.0,NNW,6.9,-,N/A,,Overcast,340,2013-03-26 06:35:00
2:55 AM,33.1,25.9,75,29.98,10.0,NNW,8.1,-,N/A,,Overcast,340,2013-03-26 06:55:00
3:16 AM,33.1,25.7,74,29.98,10.0,NNW,6.9,-,N/A,,Overcast,330,2013-03-26 07:16:00
3:36 AM,32.9,26.2,76,29.98,10.0,NNW,6.9,-,N/A,,Overcast,340,2013-03-26 07:36:00
3:55 AM,32.9,26.2,76,29.98,10.0,North,6.9,-,N/A,,Overcast,350,2013-03-26 07:55:00
4:16 AM,32.9,26.2,76,29.98,10.0,North,8.1,-,N/A,,Overcast,350,2013-03-26 08:16:00
4:35 AM,32.9,26.4,77,29.98,10.0,North,9.2,-,N/A,,Overcast,350,2013-03-26 08:35:00
4:55 AM,32.5,27.0,80,29.98,10.0,North,8.1,-,N/A,,Overcast,350,2013-03-26 08:55:00
5:16 AM,32.2,27.3,82,29.98,10.0,North,8.1,-,N/A,,Overcast,350,2013-03-26 09:16:00
5:35 AM,32.0,27.5,83,29.98,10.0,NNW,6.9,-,N/A,,Overcast,340,2013-03-26 09:35:00
5:55 AM,32.0,27.5,83,29.99,10.0,North,6.9,-,N/A,,Overcast,350,2013-03-26 09:55:00
6:16 AM,32.0,27.5,83,29.99,10.0,NNW,6.9,-,N/A,,Overcast,340,2013-03-26 10:16:00
6:35 AM,32.0,27.5,83,29.99,10.0,North,6.9,-,N/A,,Overcast,350,2013-03-26 10:35:00
6:55 AM,32.0,27.5,83,30.00,10.0,North,8.1,-,N/A,,Overcast,350,2013-03-26 10:55:00
7:16 AM,32.0,27.5,83,30.00,10.0,North,8.1,-,N/A,,Overcast,350,2013-03-26 11:16:00
7:35 AM,32.0,27.3,83,30.01,10.0,North,6.9,-,N/A,,Overcast,350,2013-03-26 11:35:00
7:55 AM,32.0,27.3,83,30.01,10.0,NNW,6.9,-,N/A,,Overcast,340,2013-03-26 11:55:00
8:16 AM,32.2,27.1,82,30.02,10.0,North,6.9,-,N/A,,Overcast,350,2013-03-26 12:16:00
8:35 AM,32.7,27.1,80,30.02,10.0,North,6.9,-,N/A,,Overcast,350,2013-03-26 12:35:00
8:56 AM,33.1,26.8,78,30.03,10.0,North,8.1,-,N/A,,Overcast,350,2013-03-26 12:56:00
9:16 AM,33.6,26.4,75,30.03,10.0,NNW,6.9,-,N/A,,Overcast,340,2013-03-26 13:16:00
9:35 AM,34.2,25.9,72,30.04,10.0,NNW,9.2,-,N/A,,Overcast,340,2013-03-26 13:35:00
9:56 AM,34.9,25.3,68,30.04,10.0,North,6.9,-,N/A,,Overcast,350,2013-03-26 13:56:00
10:16 AM,35.6,24.4,64,30.04,10.0,NNW,6.9,-,N/A,,Overcast,340,2013-03-26 14:16:00
10:35 AM,36.5,23.9,60,30.05,10.0,North,8.1,-,N/A,,Overcast,350,2013-03-26 14:35:00
10:55 AM,38.7,22.5,52,30.05,10.0,North,8.1,-,N/A,,Overcast,360,2013-03-26 14:55:00
11:15 AM,39.6,21.0,48,30.05,10.0,North,13.8,-,N/A,,Scattered Clouds,350,2013-03-26 15:15:00
11:36 AM,39.7,20.7,46,30.05,10.0,North,12.7,17.3,N/A,,Clear,350,2013-03-26 15:36:00
11:55 AM,40.3,19.9,44,30.05,10.0,North,9.2,16.1,N/A,,Clear,360,2013-03-26 15:55:00
12:15 PM,39.6,19.4,44,30.05,10.0,North,6.9,17.3,N/A,,Scattered Clouds,350,2013-03-26 16:15:00
12:36 PM,40.5,19.2,43,30.05,10.0,North,9.2,-,N/A,,Mostly Cloudy,360,2013-03-26 16:36:00
12:55 PM,41.5,19.2,41,30.04,10.0,North,10.4,-,N/A,,Scattered Clouds,360,2013-03-26 16:55:00
1:16 PM,41.9,18.7,39,30.04,10.0,North,8.1,-,N/A,,Clear,350,2013-03-26 17:16:00
1:36 PM,42.8,17.4,36,30.04,10.0,North,10.4,18.4,N/A,,Clear,350,2013-03-26 17:36:00
1:55 PM,43.0,17.2,36,30.04,10.0,NNW,12.7,17.3,N/A,,Clear,330,2013-03-26 17:55:00
2:16 PM,43.2,17.4,36,30.04,10.0,North,10.4,17.3,N/A,,Scattered Clouds,350,2013-03-26 18:16:00
2:55 PM,43.5,15.8,33,30.03,10.0,NNW,12.7,18.4,N/A,,Mostly Cloudy,330,2013-03-26 18:55:00
3:16 PM,42.3,16.5,35,30.02,10.0,NNW,10.4,20.7,N/A,,Mostly Cloudy,330,2013-03-26 19:16:00
3:36 PM,43.2,17.1,35,30.02,10.0,North,8.1,16.1,N/A,,Mostly Cloudy,10,2013-03-26 19:36:00
3:55 PM,42.1,18.9,39,30.02,10.0,North,8.1,17.3,N/A,,Scattered Clouds,350,2013-03-26 19:55:00
4:16 PM,42.1,18.1,38,30.02,10.0,NNW,12.7,19.6,N/A,,Mostly Cloudy,330,2013-03-26 20:16:00
4:55 PM,42.1,18.1,38,30.02,10.0,NW,13.8,19.6,N/A,,Clear,320,2013-03-26 20:55:00
5:16 PM,40.8,18.5,41,30.02,10.0,NNW,10.4,17.3,N/A,,Scattered Clouds,330,2013-03-26 21:16:00
5:35 PM,40.8,18.3,40,30.03,10.0,NNW,10.4,18.4,N/A,,Scattered Clouds,330,2013-03-26 21:35:00
5:55 PM,40.8,18.3,40,30.03,10.0,NNW,11.5,18.4,N/A,,Clear,330,2013-03-26 21:55:00
6:16 PM,39.7,19.4,44,30.04,10.0,NW,10.4,18.4,N/A,,Clear,320,2013-03-26 22:16:00
6:35 PM,39.0,19.4,45,30.04,10.0,NNW,13.8,18.4,N/A,,Clear,330,2013-03-26 22:35:00
6:55 PM,37.8,21.2,51,30.05,10.0,NNW,10.4,19.6,N/A,,Clear,330,2013-03-26 22:55:00
7:16 PM,36.9,21.2,53,30.05,10.0,NW,10.4,19.6,N/A,,Clear,320,2013-03-26 23:16:00
7:35 PM,36.0,20.5,53,30.06,10.0,NW,13.8,26.5,N/A,,Clear,320,2013-03-26 23:35:00
7:55 PM,35.6,20.3,54,30.06,10.0,NNW,13.8,19.6,N/A,,Clear,340,2013-03-26 23:55:00
8:16 PM,34.7,22.1,60,30.06,10.0,NNW,11.5,17.3,N/A,,Scattered Clouds,330,2013-03-27 00:16:00
8:35 PM,34.3,22.6,62,30.07,10.0,NW,8.1,16.1,N/A,,Mostly Cloudy,320,2013-03-27 00:35:00
8:55 PM,33.8,23.0,65,30.07,10.0,NW,10.4,18.4,N/A,,Overcast,320,2013-03-27 00:55:00
9:16 PM,33.6,23.0,65,30.07,10.0,NW,9.2,17.3,N/A,,Overcast,320,2013-03-27 01:16:00
9:35 PM,33.3,23.7,68,30.07,10.0,NW,11.5,17.3,N/A,,Overcast,320,2013-03-27 01:35:00
9:55 PM,32.9,23.7,69,30.08,10.0,NW,10.4,-,N/A,,Overcast,310,2013-03-27 01:55:00
10:16 PM,32.5,24.3,72,30.08,10.0,NW,8.1,17.3,N/A,,Overcast,320,2013-03-27 02:16:00
10:35 PM,32.2,24.8,74,30.08,10.0,NW,9.2,-,N/A,,Scattered Clouds,320,2013-03-27 02:35:00
10:55 PM,32.0,24.8,75,30.08,10.0,NNW,9.2,16.1,N/A,,Scattered Clouds,330,2013-03-27 02:55:00
11:16 PM,32.0,25.2,76,30.08,10.0,NNW,8.1,16.1,N/A,,Overcast,330,2013-03-27 03:16:00
11:35 PM,32.0,25.2,76,30.07,10.0,NNW,9.2,17.3,N/A,,Overcast,330,2013-03-27 03:35:00
11:55 PM,32.0,25.3,76,30.07,10.0,NW,10.4,17.3,N/A,,Overcast,320,2013-03-27 03:55:00